STARLINK-32141, 60290

Orbit data source: Space-Track

STARLINK-32141, 60290 is a payload satellite owned by SpaceX/Seattle (US) in LEO that was launched on Sun, 28 Jul 2024 UTC via an FALCON 9 launch vehicle from the Air Force Eastern Test Range (AFETR). Payload-class satellites include a variety of spacecraft equipped with specific instruments for various scientific and technological missions. These include communications satellites like Starlink; space stations such as the ISS; scientific satellites like the Hubble; Earth observation satellites from companies like Planet Labs, Umbra, and HawkEye 360; GPS; miniature CubeSats for education and research; and military/defense satellites.

Loading next visibility...
Identifier
60290, 2024-132N
Orbit
LEO
Country
Flag of USUS
Related business
Manufacturer
SpaceX/Seattle
Mission
Operational Commercial Communications
Bus & Motor
STARLINK V2M, Unknown motor
Mass
730 kg wet, ~700 kg dry
Launch date (UTC)
2024-07-28 (2 years ago)
Launch vehicle
FALCON 9
Launch site
Air Force Eastern Test Range (AFETR)
Object type
Payload
Rocket body
Debris
Shape & HBR
Box + 2 Pan, 17.7 m
Radar Cross Section
33.884 m², Large (>1 m²)

Expand to show TLE details & history
Last TLE update: 4 hours ago

TLE from 4 hours ago
0 STARLINK-32141
1 60290U 24132N   26132.19298793  .00000029  00000-0  13118-4 0  9990
2 60290  53.1593 117.4186 0001317  88.3505 271.7647 15.30192494101288
Epoch: 2026-05-12T04:37Z
TLE epoch observation values (Epoch: 2026-05-12T04:37:54.157Z)
Latitude
0.00003°
Longitude
177.97208°
Altitude
476.109 km
Speed
7.629 km/s
True Right ascension
07h 49m 40s
True Declination
0° 00' 00"
Sunlit
Object was in daylight at epoch
Visualization orbit readout
Latitude
Unknown
Longitude
Unknown
Altitude
Unknown
Speed
Unknown
Apparent Right ascension
Unknown
Apparent Declination
Unknown
Sunlit
N/A
Visualization observer readout
Local Sidereal Time
17:24:51
Azimuth
Unknown
Elevation
Unknown
Doppler factor
Unknown
Orbital elements
Apogee altitude
476.397 km
Perigee altitude
474.591 km
Semi-major axis
6,853.631 km
Eccentricity
0.00013
Inclination
53.1593°
RAAN
117.4186°
Arg. of periapsis
88.3505°
True anomaly
271.74962°
Mean anomaly
271.7647°
Eccentric anomaly
271.75716°
Mean motion
3.82527 °/min
Orbital period
94.11 mins
BSTAR
0.000013118
Loading maneuver chart data...
Computing Atmospheric mass density...
Loading historical data...
Loading historical data...
Loading historical data...
Loading historical data...
Loading historical data...
Loading historical data...
Loading historical data...

Documentation

Showing up to 5 results
|